Regional Weather Roundup
Issued by NWS

Home | Current Version | Previous Version | Graphics & Text | Print | Product List | Glossary On
Versions: 1 2 3 4 5 6 7 8 9 10 11 12 13 14 15 16 17 18 19 20 21 22 23 24 25 26 27 28 29 30 31 32 33 34 35 36 37 38 39 40 41 42 43 44 45 46 47 48 49 50
000
ASUS45 KCYS 240110
RWRWY

WYOMING REGIONAL WEATHER ROUNDUP
NATIONAL WEATHER SERVICE CHEYENNE WY
700 PM MDT THU MAR 23 2017

NOTE:  "FAIR" INDICATES FEW OR NO CLOUDS BELOW 12,000 FEET
WITH NO SIGNIFICANT WEATHER AND/OR OBSTRUCTIONS TO VISIBILITY.

WYZ001-240200-
YELLOWSTONE NATIONAL PARK

CITY           SKY/WX    TMP DP  RH WIND       PRES   REMARKS
LK YELLOWSTONE   N/A     38  20  48 VRB5      29.95R WCI  34
W YELLOWSTONE  NOT AVBL

$$
WYZ002>013-054>058-071-098>099-240200-
NORTHERN WYOMING

CITY           SKY/WX    TMP DP  RH WIND       PRES   REMARKS
JACKSON        PTCLDY    43  27  52 W12       29.91R
CODY           FAIR      43  32  65 SW10      29.94R
GREYBULL       CLOUDY    49  34  56 NW10      29.88R
WORLAND        CLOUDY    45  38  76 W3        29.89R
SHERIDAN       CLOUDY    44  37  76 SW7       29.93R
BUFFALO        CLOUDY    42  34  73 NW18G26   29.92R
GILLETTE       CLOUDY    41  32  70 N10       29.90R
HULETT         DRIZZLE   37  37 100 NE8       29.91R WCI  31
NEWCASTLE      FAIR      45  32  61 N16G28    29.78R

$$
WYZ014>020-022>026-101>103-240200-
CENTRAL WYOMING

CITY           SKY/WX    TMP DP  RH WIND       PRES   REMARKS
BIG PINEY      CLOUDY    35  33  92 NW9       29.91R WCI  28
PINEDALE       CLOUDY    36  32  87 NW15G22   29.90R WCI  26
DUBOIS         CLOUDY    34  32  93 N5        29.92R WCI  30
LANDER         LGT RAIN  37  35  92 NW5       29.92R WCI  33
RIVERTON       LGT RAIN  38  36  92 N10       29.92R WCI  31
CASPER         CLOUDY    40  33  76 N16       29.89R WCI  31
DOUGLAS        CLOUDY    41  34  76 N14G21    29.87R

$$
WYZ021-027>030-104>119-240200-
SOUTHERN WYOMING

CITY           SKY/WX    TMP DP  RH WIND       PRES   REMARKS
EVANSTON       CLOUDY    34  30  85 W9        29.94R WCI  27
KEMMERER       FLURRIES  34  32  93 NW16G22   29.92R WCI  23
FORT BRIDGER   LGT RAIN  36  36 100 NW14      29.95R WCI  27
ROCK SPRINGS   LGT RAIN  38  34  85 E17       29.86R WCI  28
DIXON            N/A     45  36  69 N10       29.83R
RAWLINS        MOCLDY    42  34  73 N9        29.82R
SARATOGA       CLOUDY    41  32  70 N14G21    29.83R
LARAMIE        MOCLDY    44  33  65 N22G29    29.78R
CHEYENNE       MOCLDY    46  39  76 N35G46    29.72R
TORRINGTON     FAIR      48  42  80 N18G32    29.72R
PINE BLUFFS    MOCLDY    55  36  47 N17G37    29.67R

$$



USA.gov is the U.S. government's official web portal to all federal, state and local government web resources and services.